Zurück zum Katalog

STARLINK-34901

AktivKommunikationVLEO
NORAD 65207·PAYLOAD·🇺🇸 United States

Gestartet Aug 14, 2025 von Cape Canaveral Space Force Station

Loading…

Nächste Überflüge (nächste 24 Stunden)

TLE

AktuellSource: CelesTrak SupGP

Epoche: Sep 15, 2026, 03:24 UTC

1 65207C 25176K   26258.14215278  .00068820  00000+0  20333-2 0  2588
2 65207  53.1596 348.9668 0001039  94.4869 123.2564 15.34356333    18

Verfolge STARLINK-34901 in Echtzeit mit AllMySat

Download on the App Store